RUK5AK EGSS-EGPF

Flight info

Callsign RUK5AK
Flight time N/A
Altitude 32000
Route UTAVA Q75 BUZAD T420 TNT UN57 POL UN601 RIBEL DCT ASLIB
Aircraft B738/M-SDE2E3FGHIRWXY/LB1

Departure

Time N/A
Airport London Stansted Airport (EGSS)

Arrival

Time 2026-05-06 19:13
Airport Glasgow Airport (EGPF)
Time Latitude Longitude Altitude Speed Heading
2026-05-06 18:23 52.16931 -0.53935 20433 ft 383 kts 292°
2026-05-06 18:23 52.17940 -0.57959 21055 ft 385 kts 292°
2026-05-06 18:24 52.18956 -0.62022 21595 ft 390 kts 292°
2026-05-06 18:24 52.19985 -0.66140 22113 ft 394 kts 292°
2026-05-06 18:24 52.21022 -0.70296 22688 ft 397 kts 291°
2026-05-06 18:24 52.22065 -0.74487 23284 ft 400 kts 291°
2026-05-06 18:25 52.23113 -0.78699 23780 ft 403 kts 292°
2026-05-06 18:25 52.24419 -0.82756 24224 ft 407 kts 304°
2026-05-06 18:25 52.26259 -0.86290 24695 ft 410 kts 315°
2026-05-06 18:25 52.28495 -0.89205 25153 ft 415 kts 326°
2026-05-06 18:26 52.30972 -0.91669 25617 ft 417 kts 327°
2026-05-06 18:26 52.33480 -0.94082 26040 ft 420 kts 327°
2026-05-06 18:26 52.36010 -0.96523 26447 ft 423 kts 327°
2026-05-06 18:26 52.38542 -0.99002 26848 ft 426 kts 327°
2026-05-06 18:27 52.41081 -1.01520 27272 ft 428 kts 326°
2026-05-06 18:27 52.43627 -1.04064 27678 ft 430 kts 326°
2026-05-06 18:27 52.46183 -1.06627 28078 ft 432 kts 326°
2026-05-06 18:27 52.48745 -1.09199 28589 ft 431 kts 326°
2026-05-06 18:28 52.51292 -1.11758 29190 ft 428 kts 326°
2026-05-06 18:28 52.53824 -1.14307 29798 ft 425 kts 326°
2026-05-06 18:28 52.56337 -1.16839 30312 ft 424 kts 326°
2026-05-06 18:28 52.58851 -1.19376 30708 ft 424 kts 326°
2026-05-06 18:29 52.61362 -1.21913 31083 ft 424 kts 326°
2026-05-06 18:29 52.63872 -1.24451 31496 ft 423 kts 326°
2026-05-06 18:29 52.66378 -1.26988 31918 ft 422 kts 326°
2026-05-06 18:29 52.68892 -1.29538 31973 ft 426 kts 326°
2026-05-06 18:30 52.73901 -1.34630 32041 ft 423 kts 326°
2026-05-06 18:30 52.78882 -1.39710 32059 ft 420 kts 326°
2026-05-06 18:31 52.83847 -1.44790 32052 ft 420 kts 326°
2026-05-06 18:31 52.88858 -1.49754 32040 ft 421 kts 333°
2026-05-06 18:32 52.94262 -1.53514 32045 ft 422 kts 337°
2026-05-06 18:32 52.99716 -1.57113 32043 ft 422 kts 336°
2026-05-06 18:33 53.05147 -1.60775 32051 ft 421 kts 336°
2026-05-06 18:33 53.10557 -1.64491 32036 ft 420 kts 336°
2026-05-06 18:34 53.15951 -1.68227 32040 ft 419 kts 336°
2026-05-06 18:34 53.21335 -1.71968 32039 ft 419 kts 336°
2026-05-06 18:35 53.26708 -1.75711 32050 ft 418 kts 336°
2026-05-06 18:35 53.32070 -1.79455 32037 ft 417 kts 336°
2026-05-06 18:36 53.37416 -1.83199 32042 ft 416 kts 336°
2026-05-06 18:36 53.42756 -1.86948 32036 ft 416 kts 336°
2026-05-06 18:37 53.47185 -1.90065 32033 ft 415 kts 336°
2026-05-06 18:37 53.53416 -1.94463 32037 ft 415 kts 336°
2026-05-06 18:38 53.58741 -1.98233 32037 ft 416 kts 336°
2026-05-06 18:38 53.64074 -2.02018 32037 ft 416 kts 336°
2026-05-06 18:39 53.69403 -2.05812 32036 ft 416 kts 336°
2026-05-06 18:40 53.77334 -2.11477 32033 ft 415 kts 336°
2026-05-06 18:40 53.82642 -2.15281 32026 ft 413 kts 336°
2026-05-06 18:41 53.87925 -2.19078 32027 ft 411 kts 336°
2026-05-06 18:41 53.93180 -2.22865 32034 ft 410 kts 336°
2026-05-06 18:42 53.98383 -2.26625 32037 ft 409 kts 336°
2026-05-06 18:42 54.03553 -2.30643 32036 ft 408 kts 332°
2026-05-06 18:43 54.08526 -2.35299 32032 ft 408 kts 330°
2026-05-06 18:43 54.13480 -2.40024 32025 ft 408 kts 330°
2026-05-06 18:44 54.18444 -2.44728 32030 ft 408 kts 331°
2026-05-06 18:44 54.23412 -2.49422 32042 ft 408 kts 330°
2026-05-06 18:45 54.28418 -2.54156 32024 ft 408 kts 330°
2026-05-06 18:45 54.33349 -2.58830 32017 ft 408 kts 330°
2026-05-06 18:46 54.38306 -2.63543 32026 ft 407 kts 330°
2026-05-06 18:46 54.43256 -2.68263 32014 ft 406 kts 331°
2026-05-06 18:46 54.45714 -2.70612 31797 ft 402 kts 331°
2026-05-06 18:47 54.48140 -2.72933 31541 ft 396 kts 331°
2026-05-06 18:47 54.50531 -2.75223 31269 ft 390 kts 330°
2026-05-06 18:47 54.52888 -2.77483 30862 ft 386 kts 330°
2026-05-06 18:47 54.55227 -2.79728 30380 ft 385 kts 330°
2026-05-06 18:48 54.57570 -2.81982 29768 ft 386 kts 330°
2026-05-06 18:48 54.59911 -2.84237 29233 ft 384 kts 330°
2026-05-06 18:48 54.62234 -2.86478 28743 ft 381 kts 329°
2026-05-06 18:48 54.64542 -2.88707 28259 ft 379 kts 329°
2026-05-06 18:49 54.66831 -2.90921 27767 ft 376 kts 329°
2026-05-06 18:49 54.69113 -2.93131 27273 ft 375 kts 329°
2026-05-06 18:49 54.71380 -2.95330 26811 ft 373 kts 329°
2026-05-06 18:49 54.73632 -2.97517 26411 ft 370 kts 329°
2026-05-06 18:50 54.75863 -2.99685 26028 ft 366 kts 329°
2026-05-06 18:50 54.78078 -3.01841 25571 ft 364 kts 329°
2026-05-06 18:50 54.80284 -3.03992 25109 ft 363 kts 329°
2026-05-06 18:50 54.82481 -3.06137 24673 ft 362 kts 328°
2026-05-06 18:51 54.84673 -3.08279 24256 ft 361 kts 328°
2026-05-06 18:51 54.86852 -3.10411 23852 ft 359 kts 328°
2026-05-06 18:51 54.89023 -3.12538 23403 ft 357 kts 328°
2026-05-06 18:51 54.91184 -3.14658 22936 ft 356 kts 328°
2026-05-06 18:52 54.93329 -3.16764 22500 ft 353 kts 328°
2026-05-06 18:52 54.95456 -3.18855 22055 ft 348 kts 328°
2026-05-06 18:52 54.96841 -3.20217 21663 ft 344 kts 328°
2026-05-06 18:52 54.98917 -3.22262 20957 ft 342 kts 327°
2026-05-06 18:53 55.00980 -3.24298 20271 ft 340 kts 327°
2026-05-06 18:53 55.03031 -3.26324 19627 ft 338 kts 327°
2026-05-06 18:53 55.05067 -3.28337 19013 ft 335 kts 327°
2026-05-06 18:53 55.07088 -3.30338 18393 ft 333 kts 327°
2026-05-06 18:54 55.09095 -3.32328 17704 ft 331 kts 327°
2026-05-06 18:54 55.11085 -3.34303 17046 ft 328 kts 327°
2026-05-06 18:54 55.13058 -3.36263 16488 ft 323 kts 327°
2026-05-06 18:54 55.15005 -3.38199 16098 ft 321 kts 327°
2026-05-06 18:55 55.16945 -3.40131 15717 ft 320 kts 327°
2026-05-06 18:55 55.18876 -3.42057 15349 ft 318 kts 327°
2026-05-06 18:55 55.20795 -3.43973 14992 ft 317 kts 327°
2026-05-06 18:55 55.22704 -3.45880 14652 ft 315 kts 327°
2026-05-06 18:56 55.24607 -3.47784 14296 ft 314 kts 327°
2026-05-06 18:56 55.26500 -3.49680 13949 ft 313 kts 327°
2026-05-06 18:56 55.28386 -3.51571 13575 ft 312 kts 327°
2026-05-06 18:56 55.30262 -3.53454 13198 ft 310 kts 327°
2026-05-06 18:57 55.32128 -3.55328 12839 ft 308 kts 327°
2026-05-06 18:57 55.33980 -3.57191 12492 ft 306 kts 327°
2026-05-06 18:57 55.35818 -3.59040 12152 ft 304 kts 327°
2026-05-06 18:57 55.37646 -3.60884 11823 ft 302 kts 327°
2026-05-06 18:58 55.39467 -3.62722 11488 ft 301 kts 327°
2026-05-06 18:58 55.41277 -3.64550 11149 ft 300 kts 327°
2026-05-06 18:58 55.43080 -3.66374 10817 ft 298 kts 327°
2026-05-06 18:58 55.44875 -3.68190 10492 ft 297 kts 327°
2026-05-06 18:59 55.46653 -3.69992 10265 ft 292 kts 327°
2026-05-06 18:59 55.48390 -3.71752 10143 ft 284 kts 327°
2026-05-06 18:59 55.50083 -3.73470 9991 ft 278 kts 327°
2026-05-06 18:59 55.51755 -3.75170 9676 ft 277 kts 327°
2026-05-06 19:00 55.53422 -3.76860 9384 ft 276 kts 329°
2026-05-06 19:00 55.55182 -3.78282 9126 ft 281 kts 337°
2026-05-06 19:00 55.57036 -3.79450 8864 ft 284 kts 339°
2026-05-06 19:00 55.58910 -3.80594 8601 ft 285 kts 339°
2026-05-06 19:01 55.60772 -3.81725 8330 ft 282 kts 339°
2026-05-06 19:01 55.62619 -3.82848 8052 ft 279 kts 339°
2026-05-06 19:01 55.64447 -3.83963 7797 ft 277 kts 339°
2026-05-06 19:01 55.66236 -3.85053 7540 ft 275 kts 339°
2026-05-06 19:02 55.68037 -3.86155 7287 ft 273 kts 339°
2026-05-06 19:02 55.69846 -3.87267 7027 ft 271 kts 339°
2026-05-06 19:02 55.71595 -3.88350 6778 ft 269 kts 339°
2026-05-06 19:02 55.73359 -3.89441 6539 ft 268 kts 339°
2026-05-06 19:03 55.75103 -3.90519 6342 ft 264 kts 339°
2026-05-06 19:03 55.76833 -3.91588 6071 ft 263 kts 339°
2026-05-06 19:03 55.78554 -3.92653 5794 ft 261 kts 339°
2026-05-06 19:03 55.80270 -3.93714 5522 ft 261 kts 339°
2026-05-06 19:04 55.81987 -3.94788 5244 ft 262 kts 339°
2026-05-06 19:04 55.83707 -3.95885 4992 ft 262 kts 339°
2026-05-06 19:04 55.85399 -3.96971 4871 ft 256 kts 339°
2026-05-06 19:04 55.87059 -3.98038 4757 ft 251 kts 339°
2026-05-06 19:05 55.88679 -3.99079 4639 ft 245 kts 339°
2026-05-06 19:05 55.90266 -4.00096 4530 ft 239 kts 339°
2026-05-06 19:05 55.91814 -4.01081 4432 ft 233 kts 339°
2026-05-06 19:05 55.93323 -4.02041 4346 ft 229 kts 339°
2026-05-06 19:06 55.94829 -4.03001 4186 ft 231 kts 339°
2026-05-06 19:06 55.96343 -4.03967 4011 ft 231 kts 339°
2026-05-06 19:06 55.97851 -4.04936 3823 ft 229 kts 336°
2026-05-06 19:06 55.99111 -4.06535 3666 ft 219 kts 305°
2026-05-06 19:07 55.99952 -4.08745 3461 ft 213 kts 300°
2026-05-06 19:07 56.00731 -4.10965 3242 ft 209 kts 299°
2026-05-06 19:07 56.01439 -4.13175 3039 ft 199 kts 285°
2026-05-06 19:07 56.01265 -4.15317 2922 ft 171 kts 214°
2026-05-06 19:08 56.00159 -4.16022 3013 ft 176 kts 195°
2026-05-06 19:08 55.99181 -4.17185 3013 ft 172 kts 239°
2026-05-06 19:08 55.98831 -4.19193 3037 ft 170 kts 247°
2026-05-06 19:08 55.98347 -4.21120 3026 ft 170 kts 240°
2026-05-06 19:09 55.97746 -4.22903 2963 ft 166 kts 232°
2026-05-06 19:09 55.97061 -4.24560 2771 ft 166 kts 231°
2026-05-06 19:09 55.96336 -4.26162 2550 ft 165 kts 227°
2026-05-06 19:09 55.95566 -4.27667 2324 ft 163 kts 225°
2026-05-06 19:10 55.94784 -4.29137 2103 ft 163 kts 225°
2026-05-06 19:10 55.94001 -4.30598 1873 ft 163 kts 225°
2026-05-06 19:10 55.93226 -4.32046 1653 ft 160 kts 225°
2026-05-06 19:10 55.92463 -4.33473 1430 ft 157 kts 225°
2026-05-06 19:11 55.91710 -4.34880 1240 ft 153 kts 225°
2026-05-06 19:11 55.91000 -4.36207 986 ft 144 kts 225°
2026-05-06 19:11 55.90306 -4.37518 775 ft 146 kts 225°
2026-05-06 19:11 55.89596 -4.38827 569 ft 148 kts 227°
2026-05-06 19:12 55.88891 -4.40166 379 ft 148 kts 227°
2026-05-06 19:12 55.88179 -4.41480 182 ft 147 kts 227°
2026-05-06 19:12 55.87479 -4.42800 30 ft 142 kts 227°
2026-05-06 19:12 55.86937 -4.43811 28 ft 70 kts 226°
2026-05-06 19:13 55.86732 -4.44195 28 ft 24 kts 226°
2026-05-06 19:13 55.86639 -4.44261 28 ft 13 kts 137°
2026-05-06 19:13 55.86619 -4.44117 28 ft 12 kts 91°
2026-05-06 19:13 55.86622 -4.43978 28 ft 11 kts 77°
2026-05-06 19:14 55.86675 -4.43865 28 ft 13 kts 46°
2026-05-06 19:14 55.86739 -4.43703 28 ft 18 kts 73°
2026-05-06 19:14 55.86774 -4.43488 28 ft 18 kts 73°
2026-05-06 19:14 55.86807 -4.43281 28 ft 17 kts 73°
2026-05-06 19:15 55.86839 -4.43085 28 ft 15 kts 81°
2026-05-06 19:15 55.86788 -4.42994 28 ft 9 kts 164°
2026-05-06 19:15 55.86754 -4.42977 28 ft 4 kts 164°
2026-05-06 19:15 55.86730 -4.42964 28 ft 3 kts 162°
2026-05-06 19:16 55.86711 -4.42954 28 ft 3 kts 163°
2026-05-06 19:16 55.86688 -4.42955 28 ft 5 kts 209°
2026-05-06 19:16 55.86674 -4.43004 28 ft 3 kts 255°
2026-05-06 19:16 55.86671 -4.43024 28 ft 0 kts 255°